contact:dominique.lefevre@mio.osupytheas.fr, maurice.libes@osupytheas.fr, didier.mallarino@osupytheas.fr
Project:EMSO http://www.emso-fr.org/EMSO-France
Depth: 2436.0 m
Title:EMSO Ligure Ouest : Data MII capteur AQUADOPP
Date,Latitude,Longitude,X_East,Y_North,Z_Up,Amplitude_X,Amplitude_Y,Amplitude_Z,Batterie,SoundSpeed,Heading,Pitch,Roll,Pressure,TIS,Speed,Direction
, degrees North, degrees East, m.s-1, m.s-1,m.s-1, 1, 1, 1, Volt, m.s-1, degree, degree, degree, dbar, degree_C, m.s-1, degree
2022-11-26T00:04:03,42.805,6.029,-0.007,0.02,0.032,102.0,101.0,100.0,13.4,1505.2,329.7,-0.8,1.8,2471.197,13.28,0.021,340.7
2022-11-26T00:07:03,42.805,6.029,0.014,0.006,0.046,101.0,102.0,100.0,13.3,1505.2,319.8,-0.8,1.8,2471.192,13.28,0.015,66.8
2022-11-26T00:10:03,42.805,6.029,0.009,-0.014,-0.002,100.0,102.0,100.0,13.3,1505.2,330.8,-0.8,1.8,2471.253,13.28,0.016,147.3
2022-11-26T00:13:03,42.805,6.029,0.032,-0.028,-0.009,100.0,102.0,100.0,13.4,1505.2,323.8,-0.8,1.8,2471.216,13.28,0.042,131.2
2022-11-26T00:16:03,42.805,6.029,0.012,-0.026,-0.018,100.0,101.0,101.0,13.4,1505.2,316.8,-0.7,1.8,2471.177,13.29,0.028,155.2
2022-11-26T00:19:03,42.805,6.029,0.037,-0.022,-0.014,101.0,102.0,100.0,13.4,1505.2,323.4,-0.7,1.9,2471.136,13.29,0.043,120.7
2022-11-26T00:22:03,42.805,6.029,0.007,-0.015,0.004,101.0,101.0,100.0,13.4,1505.2,329.3,-0.8,1.8,2471.202,13.29,0.016,155.0
2022-11-26T00:25:03,42.805,6.029,0.028,-0.004,0.032,101.0,101.0,100.0,13.3,1505.2,325.5,-0.8,1.8,2471.167,13.29,0.028,98.1
2022-11-26T00:28:03,42.805,6.029,0.017,-0.012,0.006,101.0,101.0,100.0,13.4,1505.2,326.4,-0.7,1.8,2471.153,13.29,0.02,125.2
2022-11-26T00:31:03,42.805,6.029,0.027,-0.014,0.006,102.0,102.0,100.0,13.4,1505.2,323.1,-0.8,1.8,2471.14,13.29,0.03,117.4
2022-11-26T00:34:03,42.805,6.029,0.009,-0.004,-0.011,101.0,101.0,100.0,13.4,1505.2,332.4,-0.8,1.8,2471.154,13.29,0.009,114.0
2022-11-26T00:37:03,42.805,6.029,0.034,-0.01,0.001,100.0,101.0,101.0,13.4,1505.2,324.7,-0.8,1.8,2471.135,13.29,0.035,106.4
2022-11-26T00:40:03,42.805,6.029,0.028,-0.014,-0.012,102.0,101.0,100.0,13.4,1505.2,334.0,-0.8,1.8,2471.161,13.29,0.031,116.6
2022-11-26T00:43:03,42.805,6.029,0.022,-0.01,0.016,103.0,102.0,100.0,13.3,1505.2,325.0,-0.8,1.8,2471.111,13.29,0.024,114.4
2022-11-26T00:46:03,42.805,6.029,0.029,-0.022,-0.038,101.0,102.0,100.0,13.4,1505.2,327.6,-0.8,1.8,2471.127,13.29,0.036,127.2
2022-11-26T00:49:03,42.805,6.029,0.034,-0.016,-0.004,102.0,101.0,100.0,13.3,1505.2,333.1,-0.8,1.8,2471.144,13.29,0.037,115.2
2022-11-26T00:52:03,42.805,6.029,0.009,-0.005,-0.02,101.0,102.0,100.0,13.4,1505.2,331.4,-0.8,1.8,2471.196,13.29,0.01,119.1
2022-11-26T00:55:03,42.805,6.029,0.004,-0.008,0.02,101.0,101.0,100.0,13.3,1505.2,322.3,-0.8,1.8,2471.124,13.29,0.008,153.4
2022-11-26T00:58:03,42.805,6.029,0.006,-0.019,-0.031,100.0,102.0,100.0,13.4,1505.2,326.7,-0.8,1.8,2471.166,13.29,0.019,162.5
2022-11-26T01:04:03,42.805,6.029,0.036,-0.035,-0.063,103.0,103.0,102.0,13.4,1505.2,328.4,-0.8,1.8,2471.255,13.28,0.05,134.2
2022-11-26T01:07:03,42.805,6.029,0.039,-0.014,0.013,101.0,101.0,101.0,13.3,1505.2,324.1,-0.7,1.8,2471.178,13.28,0.041,109.7
2022-11-26T01:10:03,42.805,6.029,0.024,-0.013,0.004,101.0,102.0,100.0,13.3,1505.2,327.1,-0.7,1.8,2471.146,13.28,0.027,118.4
2022-11-26T01:13:03,42.805,6.029,0.027,-0.003,0.031,102.0,104.0,99.0,13.4,1505.2,329.7,-0.8,1.8,2471.182,13.28,0.027,96.3
2022-11-26T01:16:03,42.805,6.029,0.008,-0.008,0.008,101.0,101.0,100.0,13.4,1505.2,321.7,-0.8,1.8,2471.135,13.29,0.011,135.0
2022-11-26T01:19:03,42.805,6.029,0.059,0.006,0.052,100.0,101.0,101.0,13.4,1505.2,325.5,-0.8,1.8,2471.109,13.29,0.059,84.2
2022-11-26T01:22:03,42.805,6.029,0.027,-0.032,-0.019,100.0,100.0,101.0,13.3,1505.2,330.6,-0.8,1.8,2471.137,13.29,0.041,139.8
2022-11-26T01:25:03,42.805,6.029,0.029,-0.014,0.008,101.0,104.0,99.0,13.3,1505.2,324.2,-0.8,1.8,2471.142,13.29,0.032,115.8
2022-11-26T01:28:03,42.805,6.029,0.03,-0.002,0.01,101.0,101.0,100.0,13.4,1505.2,318.4,-0.8,1.8,2471.148,13.29,0.03,93.8
2022-11-26T01:31:03,42.805,6.029,0.041,-0.009,0.01,101.0,101.0,100.0,13.4,1505.2,327.5,-0.8,1.8,2471.123,13.29,0.041,102.4
2022-11-26T01:34:03,42.805,6.029,0.026,-0.033,-0.005,102.0,102.0,100.0,13.4,1505.2,336.6,-0.8,1.8,2471.116,13.29,0.042,141.8
2022-11-26T01:37:03,42.805,6.029,0.012,0.007,-0.003,101.0,102.0,100.0,13.4,1505.2,329.7,-0.8,1.8,2471.108,13.29,0.013,59.7
2022-11-26T01:40:03,42.805,6.029,0.023,-0.039,-0.019,100.0,102.0,100.0,13.4,1505.2,329.0,-0.8,1.8,2471.113,13.29,0.045,149.5
2022-11-26T01:43:03,42.805,6.029,0.036,-0.012,0.006,101.0,102.0,100.0,13.4,1505.2,320.2,-0.8,1.8,2471.109,13.29,0.037,108.4
2022-11-26T01:46:03,42.805,6.029,0.014,0.005,0.024,101.0,102.0,100.0,13.4,1505.2,327.1,-0.8,1.8,2471.117,13.29,0.014,70.4
2022-11-26T01:49:03,42.805,6.029,0.036,-0.013,-0.004,102.0,104.0,100.0,13.3,1505.2,320.4,-0.8,1.8,2471.136,13.29,0.038,109.9
2022-11-26T01:52:03,42.805,6.029,0.042,-0.02,0.003,100.0,102.0,101.0,13.4,1505.2,332.3,-0.8,1.8,2471.087,13.29,0.046,115.5
2022-11-26T01:55:03,42.805,6.029,0.004,0.004,0.0,102.0,103.0,99.0,13.4,1505.2,329.5,-0.7,1.8,2471.101,13.29,0.005,45.0
2022-11-26T01:58:03,42.805,6.029,0.011,0.008,0.005,101.0,102.0,101.0,13.3,1505.2,332.3,-0.7,1.8,2471.102,13.29,0.013,54.0
2022-11-26T02:04:03,42.805,6.029,0.027,-0.006,0.0,99.0,103.0,101.0,13.3,1505.2,328.7,-0.8,1.8,2471.163,13.28,0.027,102.5
2022-11-26T02:07:03,42.805,6.029,0.025,-0.035,-0.026,101.0,102.0,101.0,13.4,1505.2,333.0,-0.8,1.8,2471.132,13.28,0.043,144.5
2022-11-26T02:10:03,42.805,6.029,0.029,0.012,0.025,102.0,102.0,99.0,13.4,1505.2,328.7,-0.7,1.8,2471.147,13.28,0.031,67.5
2022-11-26T02:13:03,42.805,6.029,0.021,0.013,0.027,103.0,101.0,99.0,13.4,1505.2,327.0,-0.8,1.8,2471.098,13.29,0.024,58.2
2022-11-26T02:16:03,42.805,6.029,0.023,0.009,0.038,101.0,103.0,100.0,13.4,1505.2,321.6,-0.8,1.8,2471.16,13.29,0.024,68.6
2022-11-26T02:19:03,42.805,6.029,0.015,0.009,0.017,101.0,100.0,101.0,13.4,1505.2,334.7,-0.7,1.8,2471.103,13.29,0.017,59.0
2022-11-26T02:22:03,42.805,6.029,0.012,-0.014,0.035,101.0,103.0,100.0,13.3,1505.2,326.3,-0.8,1.8,2471.132,13.29,0.018,139.4
2022-11-26T02:25:03,42.805,6.029,0.021,0.018,0.009,102.0,102.0,100.0,13.4,1505.2,328.0,-0.8,1.8,2471.098,13.29,0.027,49.4
2022-11-26T02:28:03,42.805,6.029,0.032,-0.018,-0.01,102.0,103.0,100.0,13.3,1505.2,320.7,-0.8,1.8,2471.141,13.29,0.036,119.4
2022-11-26T02:31:03,42.805,6.029,0.034,-0.003,0.01,100.0,102.0,102.0,13.4,1505.2,321.8,-0.8,1.9,2471.097,13.29,0.034,95.0
2022-11-26T02:34:03,42.805,6.029,-0.001,-0.009,0.007,101.0,102.0,101.0,13.4,1505.2,323.1,-0.8,1.8,2471.11,13.29,0.009,186.3
2022-11-26T02:37:03,42.805,6.029,0.003,-0.011,-0.037,101.0,102.0,101.0,13.4,1505.2,334.1,-0.8,1.8,2471.091,13.29,0.011,164.7
2022-11-26T02:40:03,42.805,6.029,0.044,-0.007,0.019,102.0,102.0,101.0,13.4,1505.2,323.1,-0.8,1.8,2471.105,13.29,0.044,99.0
2022-11-26T02:43:03,42.805,6.029,0.008,-0.007,-0.008,102.0,100.0,101.0,13.4,1505.2,327.9,-0.8,1.8,2471.112,13.29,0.01,131.2
2022-11-26T02:46:03,42.805,6.029,0.002,-0.001,0.004,102.0,101.0,101.0,13.4,1505.2,325.6,-0.8,1.8,2471.101,13.29,0.002,116.6
2022-11-26T02:49:03,42.805,6.029,0.012,-0.018,-0.032,102.0,102.0,100.0,13.4,1505.2,323.7,-0.8,1.8,2471.099,13.29,0.021,146.3
2022-11-26T02:52:03,42.805,6.029,0.051,-0.032,-0.052,102.0,101.0,100.0,13.4,1505.2,326.3,-0.8,1.8,2471.115,13.29,0.06,122.1
2022-11-26T02:55:03,42.805,6.029,0.018,-0.023,-0.006,100.0,102.0,101.0,13.4,1505.2,334.4,-0.8,1.8,2471.07,13.29,0.029,142.0
2022-11-26T02:58:03,42.805,6.029,0.046,0.009,0.038,101.0,101.0,100.0,13.4,1505.2,328.9,-0.8,1.8,2471.062,13.29,0.046,78.9
2022-11-26T04:04:03,42.805,6.029,0.019,-0.013,-0.004,101.0,103.0,100.0,13.3,1505.1,323.2,-0.8,1.8,2471.552,13.27,0.023,124.4
2022-11-26T04:07:03,42.805,6.029,0.016,-0.005,0.003,101.0,102.0,100.0,13.3,1505.2,321.2,-0.8,1.8,2471.478,13.28,0.016,107.4
2022-11-26T04:10:03,42.805,6.029,0.021,-0.002,0.002,101.0,102.0,100.0,13.4,1505.2,334.1,-0.8,1.8,2471.39,13.28,0.021,95.4
2022-11-26T04:13:03,42.805,6.029,0.065,-0.018,-0.02,102.0,101.0,100.0,13.4,1505.2,317.8,-0.8,1.8,2471.33,13.28,0.067,105.5
2022-11-26T04:16:03,42.805,6.029,0.039,0.021,0.022,102.0,102.0,100.0,13.3,1505.2,320.0,-0.8,1.8,2471.293,13.28,0.044,61.7
2022-11-26T04:19:03,42.805,6.029,-0.002,0.005,0.014,102.0,102.0,101.0,13.4,1505.2,325.2,-0.8,1.8,2471.2,13.28,0.005,338.2
2022-11-26T04:22:03,42.805,6.029,0.022,-0.03,-0.022,100.0,102.0,101.0,13.4,1505.2,333.1,-0.8,1.8,2471.188,13.28,0.037,143.7
2022-11-26T04:25:03,42.805,6.029,0.03,0.009,0.0,103.0,101.0,100.0,13.4,1505.2,330.1,-0.8,1.8,2471.231,13.28,0.031,73.3
2022-11-26T04:28:03,42.805,6.029,0.01,0.0,-0.022,101.0,102.0,100.0,13.3,1505.2,321.3,-0.8,1.8,2471.167,13.28,0.01,90.0
2022-11-26T04:31:03,42.805,6.029,0.014,-0.035,-0.021,101.0,101.0,100.0,13.4,1505.2,334.5,-0.7,1.8,2471.132,13.29,0.037,158.2
2022-11-26T04:34:03,42.805,6.029,0.03,-0.031,-0.016,100.0,101.0,100.0,13.4,1505.2,332.5,-0.8,1.8,2471.177,13.29,0.043,135.9
2022-11-26T04:37:03,42.805,6.029,0.011,-0.002,0.008,102.0,100.0,100.0,13.3,1505.2,322.6,-0.7,1.8,2471.097,13.29,0.011,100.3
2022-11-26T04:40:03,42.805,6.029,0.039,-0.009,-0.005,100.0,103.0,101.0,13.4,1505.2,329.7,-0.8,1.8,2471.163,13.29,0.04,103.0
2022-11-26T04:43:03,42.805,6.029,0.03,0.009,0.04,103.0,102.0,100.0,13.3,1505.2,332.4,-0.8,1.8,2471.107,13.29,0.031,73.3
2022-11-26T04:46:03,42.805,6.029,0.024,-0.002,0.01,103.0,103.0,99.0,13.3,1505.2,328.7,-0.7,1.8,2471.125,13.29,0.024,94.8
2022-11-26T04:49:03,42.805,6.029,0.025,-0.003,0.002,102.0,102.0,100.0,13.4,1505.2,325.2,-0.7,1.8,2471.141,13.29,0.025,96.8
2022-11-26T04:52:03,42.805,6.029,0.025,0.007,0.016,101.0,102.0,101.0,13.3,1505.2,323.7,-0.8,1.8,2471.15,13.29,0.025,74.4
2022-11-26T04:55:03,42.805,6.029,0.035,-0.025,0.002,101.0,102.0,101.0,13.4,1505.2,325.6,-0.7,1.8,2471.108,13.29,0.043,125.5
2022-11-26T04:58:03,42.805,6.029,0.035,0.006,0.027,102.0,101.0,100.0,13.3,1505.2,329.9,-0.7,1.8,2471.165,13.29,0.035,80.3
2022-11-26T05:04:03,42.805,6.029,0.018,-0.011,-0.026,101.0,102.0,101.0,13.4,1505.2,329.5,-0.8,1.8,2471.191,13.28,0.021,121.4
2022-11-26T05:07:03,42.805,6.029,0.024,0.009,0.001,102.0,102.0,101.0,13.3,1505.2,336.9,-0.8,1.8,2471.203,13.28,0.025,69.4
2022-11-26T05:10:03,42.805,6.029,-0.002,0.003,-0.008,101.0,102.0,100.0,13.3,1505.2,322.6,-0.7,1.8,2471.204,13.28,0.003,326.3
2022-11-26T05:13:03,42.805,6.029,0.014,-0.002,-0.002,101.0,102.0,100.0,13.4,1505.2,331.0,-0.8,1.8,2471.203,13.28,0.014,98.1
2022-11-26T05:16:03,42.805,6.029,0.034,-0.011,-0.001,102.0,102.0,100.0,13.4,1505.2,322.2,-0.8,1.8,2471.208,13.29,0.035,107.9
2022-11-26T05:19:03,42.805,6.029,0.012,-0.027,-0.003,102.0,103.0,100.0,13.3,1505.2,334.8,-0.7,1.8,2471.175,13.29,0.029,156.0
2022-11-26T05:22:03,42.805,6.029,0.011,0.007,0.031,103.0,103.0,100.0,13.4,1505.2,321.2,-0.8,1.8,2471.196,13.29,0.013,57.5
2022-11-26T05:25:03,42.805,6.029,0.039,0.002,-0.004,100.0,102.0,102.0,13.3,1505.2,332.7,-0.8,1.8,2471.179,13.29,0.039,87.1
2022-11-26T05:28:03,42.805,6.029,0.025,0.005,0.021,102.0,102.0,100.0,13.3,1505.2,329.0,-0.8,1.8,2471.163,13.29,0.025,78.7
2022-11-26T05:31:03,42.805,6.029,0.028,0.014,0.031,101.0,102.0,101.0,13.4,1505.2,326.8,-0.7,1.8,2471.201,13.29,0.031,63.4
2022-11-26T05:34:03,42.805,6.029,0.041,0.009,0.012,101.0,102.0,101.0,13.3,1505.2,329.1,-0.8,1.8,2471.193,13.29,0.041,77.6
2022-11-26T05:37:03,42.805,6.029,0.034,-0.01,0.023,101.0,103.0,99.0,13.4,1505.2,323.9,-0.8,1.8,2471.208,13.29,0.035,106.4
2022-11-26T05:40:03,42.805,6.029,0.026,0.0,-0.034,100.0,104.0,102.0,13.4,1505.2,330.3,-0.7,1.9,2471.22,13.29,0.026,90.0
2022-11-26T05:43:03,42.805,6.029,0.016,-0.003,0.026,102.0,103.0,100.0,13.3,1505.2,331.5,-0.8,1.8,2471.19,13.29,0.016,100.6
2022-11-26T05:46:03,42.805,6.029,0.026,-0.017,-0.005,101.0,103.0,100.0,13.4,1505.2,323.6,-0.8,1.8,2471.206,13.29,0.031,123.2
2022-11-26T05:49:03,42.805,6.029,0.015,-0.009,0.006,101.0,102.0,100.0,13.4,1505.2,317.8,-0.7,1.8,2471.21,13.29,0.017,121.0
2022-11-26T05:52:03,42.805,6.029,0.04,-0.016,-0.044,100.0,101.0,101.0,13.4,1505.2,322.3,-0.8,1.8,2471.238,13.29,0.043,111.8
2022-11-26T05:55:03,42.805,6.029,0.041,0.014,0.036,102.0,102.0,100.0,13.4,1505.2,321.8,-0.8,1.8,2471.226,13.29,0.043,71.1
2022-11-26T05:58:03,42.805,6.029,0.013,-0.006,0.016,101.0,103.0,100.0,13.4,1505.2,325.7,-0.7,1.8,2471.256,13.29,0.014,114.8
2022-11-26T06:04:03,42.805,6.029,0.038,-0.012,-0.023,102.0,101.0,100.0,13.4,1505.2,328.0,-0.8,1.8,2471.276,13.28,0.039,107.5
2022-11-26T06:07:03,42.805,6.029,0.057,-0.001,0.01,101.0,102.0,100.0,13.4,1505.2,320.4,-0.8,1.8,2471.277,13.28,0.057,91.0
2022-11-26T06:10:03,42.805,6.029,0.024,-0.02,-0.005,101.0,102.0,101.0,13.3,1505.2,324.6,-0.8,1.8,2471.266,13.28,0.031,129.8
2022-11-26T06:13:03,42.805,6.029,0.022,0.001,0.023,102.0,103.0,100.0,13.4,1505.2,323.2,-0.8,1.8,2471.282,13.28,0.022,87.4
2022-11-26T06:16:03,42.805,6.029,0.033,0.0,-0.004,101.0,102.0,100.0,13.4,1505.2,328.4,-0.8,1.8,2471.282,13.29,0.033,90.0
2022-11-26T06:19:03,42.805,6.029,0.043,0.001,-0.033,101.0,103.0,100.0,13.3,1505.2,322.5,-0.8,1.8,2471.28,13.29,0.043,88.7
2022-11-26T06:22:03,42.805,6.029,0.029,-0.033,-0.014,101.0,103.0,100.0,13.3,1505.2,326.8,-0.7,1.8,2471.27,13.29,0.043,138.7
2022-11-26T06:25:03,42.805,6.029,0.03,0.005,0.02,101.0,103.0,100.0,13.3,1505.2,318.6,-0.8,1.8,2471.294,13.29,0.03,80.5
2022-11-26T06:28:03,42.805,6.029,0.028,-0.001,0.003,101.0,103.0,101.0,13.3,1505.2,326.1,-0.8,1.8,2471.255,13.29,0.028,92.0
2022-11-26T06:31:03,42.805,6.029,0.019,-0.025,0.014,103.0,101.0,100.0,13.4,1505.2,321.0,-0.8,1.8,2471.247,13.29,0.031,142.8
2022-11-26T06:34:03,42.805,6.029,0.025,0.032,0.022,102.0,103.0,99.0,13.3,1505.2,322.6,-0.8,1.8,2471.262,13.29,0.04,38.0
2022-11-26T06:37:03,42.805,6.029,0.011,0.0,-0.03,101.0,103.0,101.0,13.3,1505.2,320.0,-0.8,1.8,2471.283,13.29,0.011,90.0
2022-11-26T06:40:03,42.805,6.029,0.027,-0.006,0.005,101.0,103.0,100.0,13.3,1505.2,327.4,-0.8,1.8,2471.287,13.29,0.027,102.5
2022-11-26T06:43:03,42.805,6.029,0.022,-0.008,0.023,102.0,103.0,100.0,13.4,1505.2,329.5,-0.8,1.8,2471.255,13.29,0.023,110.0
2022-11-26T06:46:03,42.805,6.029,-0.002,-0.001,-0.012,102.0,103.0,100.0,13.3,1505.2,326.7,-0.7,1.8,2471.318,13.29,0.002,243.4
2022-11-26T06:49:03,42.805,6.029,0.024,-0.008,-0.009,102.0,103.0,100.0,13.3,1505.2,326.4,-0.7,1.8,2471.304,13.29,0.025,108.4
2022-11-26T06:52:03,42.805,6.029,0.036,0.001,0.017,101.0,103.0,101.0,13.4,1505.2,327.1,-0.8,1.8,2471.259,13.29,0.036,88.4
2022-11-26T06:55:03,42.805,6.029,0.035,-0.005,0.003,101.0,103.0,100.0,13.4,1505.2,330.9,-0.8,1.8,2471.332,13.29,0.035,98.1
2022-11-26T06:58:03,42.805,6.029,0.025,-0.002,0.023,101.0,103.0,101.0,13.4,1505.2,323.6,-0.8,1.8,2471.304,13.29,0.025,94.6
2022-11-26T07:04:03,42.805,6.029,0.038,-0.013,-0.019,102.0,103.0,101.0,13.4,1505.2,329.6,-0.8,1.8,2471.384,13.28,0.04,108.9
2022-11-26T07:07:03,42.805,6.029,0.051,-0.002,0.028,101.0,102.0,101.0,13.4,1505.2,322.1,-0.8,1.8,2471.297,13.28,0.051,92.2
2022-11-26T07:10:03,42.805,6.029,0.033,-0.011,0.015,103.0,101.0,100.0,13.3,1505.2,328.9,-0.8,1.8,2471.332,13.28,0.034,108.4
2022-11-26T07:13:03,42.805,6.029,0.045,-0.001,0.007,101.0,102.0,102.0,13.4,1505.2,317.8,-0.7,1.8,2471.356,13.28,0.045,91.3
2022-11-26T07:16:03,42.805,6.029,0.064,-0.001,0.03,103.0,101.0,100.0,13.3,1505.2,334.1,-0.8,1.8,2471.318,13.28,0.064,90.9
2022-11-26T07:19:03,42.805,6.029,0.023,-0.001,0.0,102.0,102.0,100.0,13.4,1505.2,317.2,-0.7,1.8,2471.317,13.28,0.023,92.5
2022-11-26T07:22:03,42.805,6.029,0.016,-0.008,0.019,102.0,101.0,101.0,13.4,1505.2,336.5,-0.8,1.8,2471.323,13.29,0.017,116.6
2022-11-26T07:25:03,42.805,6.029,0.071,-0.017,0.012,100.0,104.0,101.0,13.4,1505.2,327.8,-0.8,1.8,2471.327,13.29,0.073,103.5
2022-11-26T07:28:03,42.805,6.029,0.026,-0.002,-0.001,101.0,102.0,100.0,13.4,1505.2,334.8,-0.7,1.8,2471.327,13.29,0.026,94.4
2022-11-26T07:31:03,42.805,6.029,0.025,-0.018,-0.014,102.0,102.0,100.0,13.4,1505.2,330.0,-0.7,1.8,2471.335,13.29,0.03,125.8
2022-11-26T07:34:03,42.805,6.029,0.026,0.019,0.01,100.0,103.0,101.0,13.3,1505.2,331.2,-0.8,1.8,2471.316,13.29,0.032,53.8
2022-11-26T07:37:03,42.805,6.029,0.009,0.015,0.032,101.0,103.0,100.0,13.3,1505.2,327.4,-0.7,1.8,2471.331,13.29,0.017,31.0
2022-11-26T07:40:03,42.805,6.029,0.023,-0.012,-0.005,102.0,103.0,100.0,13.4,1505.2,321.3,-0.7,1.8,2471.341,13.29,0.025,117.6
2022-11-26T07:43:03,42.805,6.029,0.042,-0.019,0.004,102.0,103.0,100.0,13.4,1505.2,319.8,-0.7,1.8,2471.371,13.29,0.046,114.3
2022-11-26T07:46:03,42.805,6.029,0.018,-0.005,-0.014,102.0,101.0,100.0,13.4,1505.2,320.9,-0.8,1.8,2471.323,13.29,0.018,105.5
2022-11-26T07:49:03,42.805,6.029,0.042,-0.019,-0.032,100.0,102.0,101.0,13.4,1505.2,322.3,-0.8,1.8,2471.326,13.29,0.046,114.3
2022-11-26T07:52:03,42.805,6.029,0.052,-0.013,0.001,101.0,102.0,101.0,13.3,1505.2,322.7,-0.7,1.8,2471.313,13.29,0.053,104.0
2022-11-26T07:55:03,42.805,6.029,0.008,-0.003,0.015,101.0,102.0,101.0,13.4,1505.2,322.0,-0.8,1.8,2471.324,13.29,0.008,110.6
2022-11-26T07:58:03,42.805,6.029,0.023,0.013,0.0,101.0,103.0,100.0,13.3,1505.2,323.6,-0.8,1.8,2471.319,13.29,0.026,60.5
2022-11-26T08:04:03,42.805,6.029,0.03,-0.015,0.008,100.0,103.0,101.0,13.4,1505.2,320.9,-0.8,1.8,2471.405,13.28,0.033,116.6
2022-11-26T08:07:03,42.805,6.029,0.028,-0.016,-0.009,102.0,102.0,100.0,13.3,1505.2,320.4,-0.8,1.8,2471.367,13.28,0.032,119.7
2022-11-26T08:10:03,42.805,6.029,0.035,0.006,0.0,100.0,103.0,100.0,13.4,1505.2,320.0,-0.8,1.9,2471.384,13.28,0.035,80.3
2022-11-26T08:13:03,42.805,6.029,0.024,0.003,0.025,102.0,104.0,99.0,13.4,1505.2,321.7,-0.8,1.8,2471.399,13.28,0.024,82.9
2022-11-26T08:16:03,42.805,6.029,0.012,-0.027,-0.053,101.0,102.0,101.0,13.4,1505.2,330.0,-0.8,1.8,2471.409,13.28,0.029,156.0
2022-11-26T08:19:03,42.805,6.029,0.043,-0.002,0.005,101.0,102.0,100.0,13.4,1505.2,328.2,-0.8,1.8,2471.358,13.29,0.043,92.7
2022-11-26T08:22:03,42.805,6.029,0.028,0.008,-0.029,100.0,101.0,101.0,13.3,1505.2,317.2,-0.8,1.8,2471.344,13.29,0.029,74.1
2022-11-26T08:25:03,42.805,6.029,0.023,-0.001,-0.022,102.0,104.0,99.0,13.4,1505.2,322.3,-0.8,1.8,2471.353,13.29,0.023,92.5
2022-11-26T08:28:03,42.805,6.029,0.024,0.01,0.039,102.0,103.0,100.0,13.4,1505.2,328.1,-0.8,1.8,2471.337,13.29,0.026,67.4
2022-11-26T08:31:03,42.805,6.029,0.023,-0.014,-0.01,103.0,103.0,99.0,13.4,1505.2,329.6,-0.8,1.8,2471.338,13.29,0.026,121.3
2022-11-26T08:34:03,42.805,6.029,0.036,-0.012,0.011,102.0,102.0,100.0,13.3,1505.2,321.8,-0.8,1.8,2471.379,13.29,0.037,108.4
2022-11-26T08:37:03,42.805,6.029,0.066,-0.014,0.009,102.0,103.0,100.0,13.4,1505.2,322.5,-0.8,1.8,2471.389,13.29,0.067,102.0
2022-11-26T08:40:03,42.805,6.029,0.043,-0.003,0.011,100.0,102.0,101.0,13.4,1505.2,322.3,-0.8,1.8,2471.355,13.29,0.043,94.0
2022-11-26T08:43:03,42.805,6.029,0.03,-0.003,0.028,101.0,102.0,101.0,13.3,1505.2,324.3,-0.8,1.8,2471.386,13.29,0.03,95.7
2022-11-26T08:46:03,42.805,6.029,0.035,-0.009,0.038,101.0,103.0,101.0,13.4,1505.2,334.1,-0.8,1.8,2471.353,13.29,0.036,104.4
2022-11-26T08:49:03,42.805,6.029,0.038,0.004,0.016,102.0,102.0,100.0,13.3,1505.2,329.5,-0.7,1.9,2471.334,13.29,0.038,84.0
2022-11-26T08:52:03,42.805,6.029,0.019,-0.01,-0.018,102.0,101.0,100.0,13.4,1505.2,322.2,-0.8,1.9,2471.355,13.29,0.021,117.8
2022-11-26T08:55:03,42.805,6.029,0.054,-0.002,0.026,102.0,102.0,100.0,13.4,1505.2,320.1,-0.8,1.8,2471.361,13.29,0.054,92.1
2022-11-26T08:58:03,42.805,6.029,0.04,-0.012,-0.005,102.0,102.0,100.0,13.4,1505.2,319.1,-0.7,1.8,2471.336,13.29,0.041,106.7
2022-11-26T09:04:03,42.805,6.029,0.031,0.005,0.017,101.0,102.0,100.0,13.4,1505.2,328.2,-0.7,1.8,2471.372,13.28,0.031,80.8
2022-11-26T09:07:03,42.805,6.029,0.02,0.003,-0.042,101.0,102.0,100.0,13.4,1505.2,327.1,-0.8,1.8,2471.388,13.28,0.02,81.5
2022-11-26T09:10:03,42.805,6.029,0.025,-0.024,0.006,101.0,103.0,99.0,13.4,1505.2,323.6,-0.7,1.8,2471.405,13.28,0.034,133.8
2022-11-26T09:13:03,42.805,6.029,0.025,0.0,0.018,102.0,101.0,100.0,13.4,1505.2,316.8,-0.8,1.8,2471.38,13.28,0.025,90.0
2022-11-26T09:16:03,42.805,6.029,0.009,-0.013,-0.02,102.0,102.0,100.0,13.4,1505.2,322.3,-0.7,1.8,2471.373,13.28,0.015,145.3
2022-11-26T09:19:03,42.805,6.029,0.026,-0.003,-0.007,102.0,101.0,100.0,13.3,1505.2,319.8,-0.7,1.8,2471.33,13.29,0.026,96.6
2022-11-26T09:22:03,42.805,6.029,0.016,-0.028,0.001,101.0,102.0,100.0,13.4,1505.2,334.1,-0.7,1.8,2471.348,13.29,0.032,150.3
2022-11-26T09:25:03,42.805,6.029,0.035,-0.014,0.003,102.0,100.0,100.0,13.4,1505.2,320.4,-0.7,1.8,2471.34,13.29,0.037,111.8
2022-11-26T09:28:03,42.805,6.029,0.012,-0.004,-0.013,101.0,102.0,100.0,13.4,1505.2,321.8,-0.7,1.8,2471.363,13.29,0.012,108.4
2022-11-26T09:31:03,42.805,6.029,0.029,-0.019,0.008,103.0,100.0,99.0,13.3,1505.2,319.9,-0.8,1.8,2471.348,13.29,0.034,123.2
2022-11-26T09:34:03,42.805,6.029,0.016,-0.003,-0.034,101.0,102.0,100.0,13.4,1505.2,323.5,-0.8,1.8,2471.371,13.29,0.016,100.6
2022-11-26T09:37:03,42.805,6.029,0.029,-0.006,0.004,101.0,102.0,100.0,13.3,1505.2,321.1,-0.8,1.8,2471.33,13.29,0.029,101.7
2022-11-26T09:40:03,42.805,6.029,0.03,-0.035,-0.017,101.0,101.0,100.0,13.3,1505.2,335.9,-0.8,1.8,2471.332,13.29,0.046,139.4
2022-11-26T09:43:03,42.805,6.029,0.038,-0.01,0.021,101.0,101.0,101.0,13.4,1505.2,320.8,-0.8,1.8,2471.315,13.29,0.039,104.7
2022-11-26T09:46:03,42.805,6.029,0.016,0.0,-0.006,101.0,100.0,100.0,13.4,1505.2,316.3,-0.7,1.8,2471.28,13.29,0.016,90.0
2022-11-26T09:49:03,42.805,6.029,0.01,-0.01,-0.014,102.0,102.0,101.0,13.4,1505.2,321.6,-0.8,1.8,2471.354,13.29,0.014,135.0
2022-11-26T09:52:03,42.805,6.029,0.014,-0.022,-0.043,101.0,101.0,100.0,13.4,1505.2,317.7,-0.8,1.8,2471.354,13.29,0.026,147.5
2022-11-26T09:55:03,42.805,6.029,0.019,-0.017,-0.013,101.0,102.0,100.0,13.4,1505.2,325.8,-0.7,1.8,2471.345,13.29,0.025,131.8
2022-11-26T09:58:03,42.805,6.029,0.003,0.004,0.011,102.0,101.0,100.0,13.4,1505.2,322.5,-0.8,1.8,2471.333,13.29,0.005,36.9
2022-11-26T10:04:03,42.805,6.029,0.021,-0.004,-0.013,101.0,103.0,100.0,13.3,1505.2,318.0,-0.8,1.8,2471.351,13.28,0.021,100.8
2022-11-26T10:07:03,42.805,6.029,0.021,-0.015,-0.009,100.0,102.0,100.0,13.4,1505.2,324.1,-0.8,1.8,2471.37,13.28,0.025,125.5
2022-11-26T10:10:03,42.805,6.029,0.013,-0.001,0.01,100.0,102.0,100.0,13.4,1505.2,318.3,-0.8,1.8,2471.354,13.28,0.013,94.4
2022-11-26T10:13:03,42.805,6.029,0.026,-0.015,-0.002,101.0,101.0,100.0,13.3,1505.2,323.7,-0.8,1.8,2471.324,13.28,0.03,120.0
2022-11-26T10:16:03,42.805,6.029,0.025,-0.014,-0.025,101.0,103.0,100.0,13.4,1505.2,336.1,-0.8,1.8,2471.356,13.29,0.028,119.3
2022-11-26T10:19:03,42.805,6.029,0.026,-0.01,-0.006,102.0,101.0,101.0,13.3,1505.2,329.2,-0.8,1.8,2471.348,13.29,0.027,111.0
2022-11-26T10:22:03,42.805,6.029,0.025,0.014,0.023,101.0,102.0,100.0,13.3,1505.2,334.1,-0.8,1.8,2471.336,13.29,0.028,60.7
2022-11-26T10:25:03,42.805,6.029,0.038,0.001,-0.003,101.0,102.0,101.0,13.3,1505.2,327.2,-0.8,1.8,2471.332,13.29,0.038,88.5
2022-11-26T10:28:03,42.805,6.029,0.025,-0.016,-0.028,101.0,102.0,101.0,13.3,1505.2,329.2,-0.8,1.8,2471.295,13.29,0.029,122.6
2022-11-26T10:31:03,42.805,6.029,0.011,-0.035,-0.004,102.0,101.0,100.0,13.4,1505.2,326.1,-0.8,1.8,2471.294,13.29,0.036,162.6
2022-11-26T10:34:03,42.805,6.029,0.032,-0.02,0.013,102.0,101.0,100.0,13.4,1505.2,331.7,-0.8,1.8,2471.314,13.29,0.037,122.0
2022-11-26T10:37:03,42.805,6.029,0.013,-0.003,-0.016,101.0,101.0,100.0,13.4,1505.2,316.3,-0.8,1.8,2471.281,13.29,0.013,103.0
2022-11-26T10:40:03,42.805,6.029,0.016,0.0,-0.013,102.0,100.0,101.0,13.3,1505.2,321.8,-0.8,1.8,2471.287,13.29,0.016,90.0
2022-11-26T10:43:03,42.805,6.029,0.026,-0.009,-0.029,102.0,102.0,101.0,13.4,1505.2,319.4,-0.8,1.8,2471.312,13.29,0.027,109.1
2022-11-26T10:46:03,42.805,6.029,0.017,-0.014,0.005,101.0,102.0,100.0,13.4,1505.2,324.2,-0.7,1.8,2471.303,13.29,0.022,129.5
2022-11-26T10:49:03,42.805,6.029,0.003,-0.023,-0.006,102.0,102.0,100.0,13.4,1505.2,331.8,-0.7,1.8,2471.293,13.29,0.023,172.6
2022-11-26T10:52:03,42.805,6.029,0.02,-0.013,-0.015,106.0,102.0,99.0,13.4,1505.2,331.0,-0.8,1.8,2471.329,13.29,0.023,123.0
2022-11-26T10:55:03,42.805,6.029,0.04,-0.008,-0.013,102.0,101.0,101.0,13.4,1505.2,329.7,-0.8,1.8,2471.284,13.29,0.04,101.3
2022-11-26T10:58:03,42.805,6.029,0.016,-0.001,0.0,101.0,102.0,100.0,13.3,1505.2,329.0,-0.7,1.8,2471.306,13.29,0.016,93.6